Location: Atherton
(17.2661°S, 145.4859°E)
Time: 00:36:24
(UTC+10:00)

Vanguard 1 - Pass Details

Date: 25 June 2025
Orbit: 649 x 3822 km, 34.2° (Epoch: 17 July)

Event Time Altitude Azimuth Distance (km) Brightness Sun altitude
Rises 18:30:05 0° 297° (WNW) 7,860 17.0 -8.8°
Reaches altitude 10° 18:35:50 10° 295° (WNW) 6,635 15.9 -10.1°
Maximum altitude 18:56:06 73° 212° (SSW) 2,572 12.1 -14.6°
Enters shadow 19:05:23 19° 129° (SE) 3,456 12.3 -16.7°
Drops below altitude 10° 19:07:12 10° 127° (SE) 3,905 - -17.1°
Sets 19:09:41 0° 124° (SE) 4,586 - -17.7°
